Volver al catálogo

CZ-4 R/B

ActivoSSO
NORAD 19468·ROCKET BODY·🇨🇳 China

Lanzado Sep 6, 1988 desde Taiyuan Satellite Launch Center

Loading…

Próximos Pases (próximas 24 horas)

TLE

ActualizadoSource: Space-Track

Época: Sep 14, 2026, 14:56 UTC

1 19468U 88080B   26257.62229249 -.00000215  00000-0 -10656-3 0  9991
2 19468  98.9491 304.9656 0071927  42.8619 119.8369 14.03771389946738

Sigue CZ-4 R/B en tiempo real con AllMySat

Download on the App Store